GEFSMA_con_probscp_198.txt.gz
Probability
0 0 0 0 0 1 2 1 0 0 0 0 0 0 0 0 0 0 0 0 0 0 0 0 0 0 0 0 0 0 0 0 0 0 0 0 0 0 0 0 0 0 0
0 0 0 0 0 1 2 2 1 0 0 0 0 0 0 0 0 0 0 0 0 0 0 0 0 0 0 0 0 0 0 0 0 0 0 0 0 0 0 0 0 0 0
1 1 0 0 0 0 1 2 2 1 0 0 0 0 0 1 1 1 1 1 1 1 1 0 0 0 0 0 0 0 0 0 0 0 0 0 0 0 0 0 0 0 0
4 3 1 1 1 0 0 1 1 1 1 0 0 0 1 2 2 1 1 1 2 2 2 1 1 0 0 0 0 1 1 1 1 1 1 1 0 0 0 0 0 0 0
6 4 3 3 3 2 1 1 1 2 2 1 0 0 1 2 2 1 1 1 2 4 4 3 2 1 1 1 2 3 3 3 3 3 2 2 1 1 0 0 0 0 0
6 4 4 7 6 4 3 4 4 4 4 3 2 1 0 1 1 2 2 2 3 5 6 6 6 4 4 4 5 5 6 6 5 4 3 2 2 2 1 1 0 0 0
8 6 6 9 9 7 7 9 8 8 8 8 6 2 0 0 1 2 5 5 4 4 6 9 10 8 7 6 6 6 7 8 7 4 2 1 2 3 3 2 1 0 0
15 13 13 15 14 12 12 13 13 11 10 11 10 5 2 1 0 2 6 7 5 4 5 7 11 12 10 9 8 7 7 7 6 5 3 1 1 3 3 3 2 1 0
24 24 24 24 22 19 17 16 15 13 10 10 11 8 4 2 1 2 4 6 6 5 4 4 8 11 13 13 12 10 7 6 5 5 5 4 3 2 2 2 2 2 1
28 28 29 29 28 25 21 18 15 12 10 9 12 11 7 5 3 2 2 3 5 6 4 3 4 8 13 16 16 13 8 4 3 5 7 8 6 4 2 2 2 2 2
26 26 28 30 30 27 25 23 19 14 12 11 12 12 12 10 6 2 1 1 3 5 5 4 4 8 12 16 17 13 7 3 2 3 6 8 9 7 6 4 3 3 4
27 27 29 32 32 29 27 27 24 18 15 14 13 13 12 12 8 4 1 0 1 4 6 7 8 10 12 14 15 11 5 3 2 2 3 5 7 9 9 8 7 6 5
30 30 32 36 36 32 28 26 24 19 17 17 15 12 10 11 10 6 2 0 1 4 8 11 13 12 11 14 17 11 4 2 1 1 1 2 4 6 7 7 7 6 4
28 30 34 37 36 31 25 22 20 18 17 18 15 12 10 10 10 7 3 1 0 3 7 9 11 10 10 15 16 11 6 3 0 0 0 0 1 2 2 3 3 2 1
25 28 32 33 32 28 24 22 21 18 17 18 16 15 14 13 12 10 6 4 3 3 4 5 6 8 10 12 10 11 10 5 1 0 0 0 0 0 0 0 0 0 0
27 29 31 32 32 30 27 25 23 20 19 19 18 19 18 16 14 13 11 10 7 4 4 4 5 7 9 8 6 11 13 8 2 0 0 0 0 0 0 0 0 0 0
34 33 34 34 34 32 30 29 25 20 19 18 18 19 18 15 13 12 12 11 10 8 6 4 3 5 8 8 7 9 11 9 4 1 0 0 0 0 0 0 0 0 0
41 38 34 33 31 29 30 31 26 20 18 18 18 18 16 13 13 12 12 12 11 10 7 3 1 3 6 7 8 8 6 6 4 1 0 0 0 0 0 0 0 0 0
43 41 37 33 29 26 27 29 26 21 19 20 21 20 17 14 14 14 12 11 11 10 7 3 1 2 2 4 6 5 3 2 3 1 0 0 0 0 0 0 0 0 0
43 42 40 34 28 24 23 25 25 20 17 18 19 18 15 13 12 12 10 9 9 9 7 4 2 1 1 2 4 3 1 1 2 2 1 1 0 0 0 0 0 0 0
38 38 37 33 26 20 18 19 19 15 13 13 14 14 11 9 8 6 5 5 7 8 5 3 2 0 0 1 1 1 0 1 1 2 3 2 1 1 0 0 0 0 0
29 30 31 29 24 16 10 9 10 10 9 10 12 12 9 6 4 3 2 2 4 4 3 1 1 0 0 0 0 0 0 0 1 2 2 2 3 3 2 0 0 0 0
23 26 26 23 19 12 5 2 3 6 8 10 12 12 9 5 3 3 1 1 2 2 1 0 0 0 0 1 0 0 0 0 0 1 1 1 3 4 3 1 0 0 0
22 24 23 19 15 10 4 1 1 4 8 10 10 10 9 6 3 3 2 2 2 2 1 0 0 0 0 0 0 0 0 0 0 0 0 2 3 4 4 2 1 0 0
21 22 20 17 14 10 5 1 1 4 7 8 8 8 8 6 3 2 2 3 3 3 2 0 0 0 0 0 0 0 0 0 0 0 1 3 4 4 5 5 2 0 0
20 19 18 16 14 11 6 2 1 4 6 7 7 7 6 4 3 1 1 3 4 3 2 1 0 0 0 0 1 1 1 0 0 0 2 4 4 4 5 6 4 1 0

GEFSMA_con_probscp_204.txt.gz
Probability
0 0 0 0 0 0 0 0 0 0 0 0 0 0 0 0 0 0 0 0 0 0 0 0 0 0 0 0 0 0 0 0 0 0 0 0 0 0 0 0 0 0 0
0 0 0 0 0 0 0 0 0 0 0 0 0 0 0 0 0 0 0 0 0 0 0 0 1 1 0 0 0 0 0 0 0 0 0 0 0 0 0 0 0 0 0
0 0 0 0 0 0 0 0 0 0 0 0 0 0 0 0 0 0 0 0 0 0 0 1 2 2 1 1 1 1 0 0 0 0 0 0 0 0 0 0 0 0 0
0 1 1 1 0 0 0 0 0 0 0 0 0 0 0 0 0 0 0 0 0 0 1 2 3 3 3 2 2 2 1 1 1 0 0 0 0 0 0 0 0 0 0
1 2 2 1 0 0 0 0 0 0 0 0 0 0 0 0 0 0 0 0 0 1 1 2 3 3 3 3 3 3 3 3 2 1 1 1 1 0 0 0 0 0 0
2 3 3 2 1 1 0 0 0 0 0 0 0 0 0 0 0 0 0 0 0 0 1 2 3 3 3 3 3 4 3 4 4 4 3 2 1 0 0 0 0 0 0
3 3 3 2 1 1 0 0 0 0 0 0 0 0 0 0 0 0 0 0 0 0 0 1 2 2 3 3 4 4 5 5 5 5 4 2 1 0 0 0 0 0 0
2 2 2 1 1 1 0 0 0 0 0 0 0 0 0 0 0 0 0 0 0 0 0 0 1 1 1 2 3 4 6 6 6 6 4 2 0 0 0 0 0 0 0
4 4 3 2 1 0 0 0 0 0 0 0 0 0 0 0 0 0 0 0 0 0 0 0 0 0 0 1 2 2 4 6 6 6 6 4 3 1 0 0 0 0 0
6 6 5 3 1 1 1 0 0 0 0 0 0 0 0 0 0 0 0 0 0 0 0 0 0 0 0 0 0 0 1 2 3 5 8 10 9 6 4 3 2 1 1
7 7 6 5 4 3 3 1 0 0 0 0 0 0 0 0 0 0 0 0 0 0 0 0 0 0 0 0 0 0 0 0 0 2 6 10 11 10 9 8 6 4 3
7 6 6 6 6 6 5 3 1 1 1 1 1 0 0 0 0 0 0 0 0 0 0 0 0 0 0 0 0 0 0 0 0 0 2 5 7 9 10 9 7 6 5
7 6 7 7 6 6 6 4 2 2 2 2 2 1 1 0 0 0 0 0 0 0 0 0 0 0 0 0 0 0 0 0 0 0 0 1 2 4 5 5 4 4 4
6 6 7 7 6 5 5 5 5 4 4 3 3 2 2 1 0 0 0 0 0 0 0 0 0 0 0 0 0 0 0 0 0 0 0 0 0 1 1 1 1 2 2
4 4 6 6 4 4 4 6 6 5 5 4 3 2 1 1 0 0 0 0 0 0 0 0 0 0 0 0 0 0 0 0 0 0 0 0 0 0 0 0 0 1 1
2 3 4 4 4 4 6 7 6 5 5 5 3 2 1 1 0 0 0 0 0 0 0 0 0 0 0 0 0 0 0 0 0 0 0 0 0 0 0 0 0 0 0
4 4 4 5 6 7 8 8 8 7 6 5 4 3 2 1 0 0 0 0 0 0 0 0 0 0 0 0 0 0 0 0 0 0 0 0 0 0 0 0 0 0 0
7 6 6 7 9 9 8 8 9 8 6 5 5 5 4 2 0 0 0 0 0 0 0 0 0 0 0 0 0 0 0 0 0 0 0 0 0 0 0 0 0 0 0
7 7 7 8 9 9 7 7 8 8 7 6 6 5 4 2 0 0 0 0 0 0 0 0 0 0 0 0 0 0 0 0 0 0 0 0 0 0 0 0 0 0 0
7 7 7 8 8 7 6 7 8 7 7 7 6 4 2 1 0 0 0 0 0 0 0 0 0 0 0 0 0 0 0 0 0 0 0 0 0 0 0 0 0 0 0
9 9 8 7 6 5 5 6 7 7 6 5 3 2 1 0 0 0 0 0 0 0 0 0 0 0 0 0 0 0 0 0 0 0 0 0 0 0 0 0 0 0 0
11 10 9 8 5 4 3 4 5 5 5 4 2 2 1 0 0 0 0 0 0 0 0 0 0 0 0 0 0 0 0 0 0 0 0 0 0 0 0 0 0 0 0
12 11 9 7 6 4 2 2 2 2 3 3 3 3 2 1 0 0 0 0 0 0 0 0 0 0 0 0 0 0 0 0 0 0 0 0 0 0 0 0 0 0 0
12 11 8 7 6 6 4 1 0 1 1 2 2 2 2 1 0 0 0 0 0 0 0 0 0 0 0 0 0 0 0 0 0 0 0 0 0 0 0 0 0 0 0
12 10 8 7 6 6 5 2 0 0 0 1 1 1 1 0 0 0 0 0 0 0 0 0 0 0 0 0 0 0 0 0 0 0 0 0 0 0 0 0 0 0 0
11 9 7 7 6 6 5 3 1 0 0 0 0 0 0 0 0 0 0 0 0 0 0 0 0 0 0 0 0 0 0 0 0 0 0 0 0 0 0 0 0 0 0

GEFSMA_con_probscp_210.txt.gz
Probability
0 0 0 0 0 0 0 0 0 0 0 0 0 0 0 0 0 0 0 0 0 0 0 0 0 0 0 0 0 0 0 0 0 0 0 0 0 0 0 0 0 0 0
0 0 0 0 0 0 0 0 0 0 0 0 0 0 0 0 0 0 0 0 0 0 1 1 0 0 1 1 1 0 0 0 0 0 0 0 0 0 0 0 0 0 0
0 0 0 0 0 0 0 0 0 0 0 0 0 0 0 0 0 0 0 0 0 0 1 1 1 1 2 2 2 1 1 1 1 0 0 0 0 0 0 0 0 0 0
0 0 0 0 0 0 0 0 0 0 0 0 0 0 0 0 0 0 0 0 0 0 1 1 1 2 2 2 2 2 2 2 2 1 0 0 0 0 0 0 0 0 0
0 0 0 0 0 0 0 0 0 0 0 0 0 0 0 0 0 0 0 0 0 0 0 0 1 1 1 1 1 1 2 3 3 2 1 0 0 0 0 0 0 0 0
0 0 0 0 0 0 0 0 0 0 0 0 0 0 0 0 0 0 0 0 0 0 0 0 0 0 0 0 0 0 1 1 2 2 2 1 1 1 0 0 0 0 0
0 0 1 0 0 0 0 0 0 0 0 0 0 0 0 0 0 0 0 0 0 0 0 0 0 0 1 0 0 0 0 0 1 1 2 2 2 1 0 0 0 0 0
0 0 0 0 0 0 0 0 0 0 0 0 0 0 0 0 0 0 0 0 0 0 0 0 0 0 0 0 0 0 0 0 0 0 1 1 1 1 0 0 0 0 0
0 0 0 0 0 0 0 0 0 0 0 0 0 0 0 0 0 0 0 0 0 0 0 0 0 0 0 0 0 0 0 0 0 0 0 0 0 0 0 1 1 1 0
0 1 1 1 1 0 0 0 0 0 0 0 1 1 0 0 0 0 0 0 0 0 0 0 0 0 0 0 0 0 0 0 0 0 0 0 0 0 0 1 2 1 1
1 1 2 2 1 0 0 1 1 1 0 1 2 2 1 1 1 0 0 0 0 0 0 0 0 0 0 0 0 0 0 0 0 0 1 1 0 0 1 1 1 1 1
0 1 1 2 1 0 1 2 2 1 0 1 2 3 3 2 2 1 0 0 0 0 0 0 0 0 0 0 0 0 0 0 0 0 1 2 1 1 1 0 0 0 1
1 0 0 1 1 1 2 2 2 1 1 2 3 3 3 3 3 1 0 0 0 0 0 0 0 0 0 0 0 0 0 0 0 0 1 2 2 1 1 0 0 0 0
1 0 0 1 2 2 3 3 2 2 4 4 4 3 3 3 3 2 1 0 0 0 0 0 0 0 0 0 0 0 0 0 0 0 0 1 1 1 0 0 0 0 0
1 1 2 3 3 3 3 4 5 5 6 6 5 4 4 3 2 2 1 0 0 0 0 0 0 0 0 0 0 0 0 0 0 0 0 0 0 0 0 0 0 0 0
1 2 4 5 4 4 4 4 6 6 6 6 6 5 4 3 2 1 1 1 1 0 0 0 0 0 0 0 0 0 0 0 0 0 0 0 0 0 0 0 0 0 0
2 3 5 5 5 5 5 5 6 6 6 6 5 5 5 4 3 3 2 2 2 1 0 0 0 0 0 0 0 0 0 0 0 0 0 0 0 0 0 0 0 0 0
3 3 4 5 6 6 6 6 6 6 6 5 5 6 6 6 5 4 3 3 2 1 1 0 0 0 0 0 0 0 0 0 1 0 0 0 0 0 0 0 0 0 0
3 3 3 4 6 6 6 6 6 5 5 4 5 5 6 5 4 3 3 3 2 1 0 0 0 0 0 0 0 0 0 0 0 0 0 0 0 0 0 0 0 0 0
3 3 3 4 5 6 6 6 5 4 2 2 2 3 3 4 3 3 2 1 1 0 0 0 0 0 0 0 0 0 0 0 0 0 0 0 0 0 0 0 0 0 0
3 3 3 3 4 4 4 5 4 3 2 1 1 1 2 3 2 1 1 0 0 0 0 0 0 0 0 0 0 0 0 0 0 0 0 0 0 0 0 0 0 0 0
5 4 3 3 3 3 2 2 2 2 3 3 2 2 3 3 1 0 0 0 0 0 0 0 0 0 0 0 0 0 0 0 0 0 0 0 0 0 0 0 0 0 0
8 7 5 5 5 3 1 0 0 1 2 3 3 3 3 2 0 0 0 0 0 0 0 0 0 0 0 0 0 0 0 0 0 0 0 0 0 0 0 0 0 0 0
11 10 8 8 7 5 1 0 0 0 1 2 2 2 2 1 0 0 0 0 0 0 0 0 0 0 0 0 0 0 0 0 0 0 0 0 0 0 0 0 0 0 0
12 11 10 9 9 6 2 0 0 1 2 2 1 1 1 0 0 0 0 0 0 0 0 0 0 0 0 0 0 0 0 0 0 0 0 0 0 0 0 0 0 0 0
11 11 10 9 8 7 3 1 1 2 4 3 1 0 0 0 0 0 0 0 0 0 0 0 0 0 0 0 0 0 0 0 0 0 0 0 0 0 0 0 0 0 0

GEFSMA_con_probscp_216.txt.gz
Probability
1 0 0 0 0 0 0 0 0 0 0 1 0 0 0 0 0 0 0 0 0 0 0 0 0 0 0 0 0 0 0 0 0 0 0 0 0 0 0 0 0 0 0
1 0 0 0 0 0 0 0 0 0 0 1 0 0 0 0 1 1 0 0 0 0 0 0 0 0 0 0 0 0 0 1 1 0 0 0 0 0 0 0 0 0 0
1 1 0 0 0 0 0 0 0 0 0 0 0 0 0 1 2 2 1 0 0 0 0 0 0 0 0 0 0 0 0 1 2 1 0 0 0 0 0 0 0 0 0
2 2 1 0 0 0 0 0 0 0 0 0 0 0 1 2 3 2 1 0 0 0 0 0 0 0 0 0 0 0 0 1 2 1 1 0 0 0 0 0 0 0 0
3 2 1 0 0 0 0 0 0 0 0 0 0 1 2 3 3 2 1 0 0 0 0 0 0 0 0 0 0 0 0 0 1 1 1 1 1 0 0 0 0 0 0
3 2 2 1 0 0 0 0 0 0 0 0 0 1 2 3 3 3 2 1 0 0 0 0 0 0 1 1 1 1 0 0 0 0 1 2 2 1 0 0 0 0 0
3 3 3 3 1 1 1 0 0 0 0 1 1 1 1 2 3 3 2 1 0 0 0 0 0 0 1 2 1 0 0 0 0 0 0 1 1 1 0 0 0 0 0
4 4 6 5 4 3 2 1 1 2 2 3 4 2 1 1 2 2 3 2 1 1 0 0 0 0 1 2 1 0 0 0 1 1 1 1 2 1 0 0 0 0 0
5 6 7 7 6 6 4 3 3 4 4 5 6 5 3 2 3 3 3 3 3 2 1 0 0 0 0 1 1 0 0 0 0 1 1 2 2 1 1 1 1 1 0
7 7 7 8 8 8 7 6 5 6 6 6 6 6 5 5 5 4 3 3 3 3 1 0 0 0 0 1 2 1 0 0 0 0 1 2 2 2 2 2 2 1 1
9 8 8 9 10 10 9 10 9 8 8 8 8 7 7 7 7 6 5 5 4 3 2 0 0 0 1 2 3 1 0 0 0 0 0 1 1 1 1 1 1 1 1
10 9 9 10 11 11 11 14 14 11 10 10 10 10 10 9 9 9 8 7 6 4 2 1 1 1 1 2 2 1 1 0 0 0 0 0 0 0 0 0 0 1 2
11 10 9 10 11 12 13 15 15 13 12 11 10 12 13 12 11 11 10 8 7 5 3 3 3 3 2 3 3 1 0 0 0 0 0 0 0 0 0 0 0 1 2
11 11 9 8 8 10 12 14 15 15 15 13 11 13 15 14 13 13 12 9 7 5 4 5 6 6 5 4 4 2 1 0 0 0 0 0 0 0 0 0 0 0 1
11 10 8 6 5 7 11 15 17 18 18 17 16 16 15 15 15 15 14 11 7 4 3 5 7 7 6 5 4 3 2 1 0 0 0 0 0 0 0 0 0 0 0
13 12 9 7 5 5 9 14 18 18 18 18 17 15 14 15 15 15 13 10 9 7 5 5 7 7 6 6 5 4 3 2 1 0 0 0 0 0 0 0 0 0 0
13 14 12 9 7 6 7 10 13 14 15 15 15 14 13 14 15 14 12 10 12 12 9 7 5 5 6 6 6 5 4 3 2 0 0 0 0 0 0 0 0 0 0
13 15 15 11 9 8 7 6 7 9 12 14 13 13 13 13 14 13 12 13 15 15 11 7 4 3 4 4 4 4 4 3 2 0 0 0 0 0 0 0 0 0 0
16 16 16 13 10 8 6 5 5 7 10 12 13 13 12 12 13 14 13 14 14 13 10 6 3 2 2 2 2 1 2 3 1 0 0 0 0 0 0 0 0 0 0
18 18 17 15 12 9 7 7 6 7 9 11 11 12 11 10 12 13 13 13 13 10 8 5 3 2 1 2 2 1 2 3 2 0 0 1 1 1 0 0 0 0 0
20 19 19 18 14 10 9 8 7 8 9 10 10 11 10 9 9 9 9 10 10 9 6 4 3 3 2 2 3 2 2 2 2 1 1 2 3 3 2 1 0 0 0
22 20 19 18 15 11 9 8 8 9 10 11 11 10 9 8 7 5 4 4 4 5 5 5 4 3 3 2 3 3 3 3 2 1 1 1 3 4 3 1 0 0 0
24 22 19 17 14 11 8 6 7 8 10 11 12 10 9 9 8 6 4 2 2 3 3 4 5 3 2 1 2 2 2 2 2 1 0 0 1 1 1 1 0 0 0
23 21 19 16 14 11 7 5 6 8 10 11 11 10 9 10 9 8 6 5 5 5 3 2 3 2 1 1 1 1 1 1 2 1 0 0 0 0 0 0 0 0 0
19 18 17 15 13 10 7 4 5 8 11 11 9 8 8 9 7 6 6 6 7 6 3 1 1 0 0 0 0 0 0 0 1 1 0 0 0 0 0 0 0 0 0
15 15 14 14 12 10 7 5 5 9 12 11 9 7 6 6 5 4 5 6 6 5 2 1 0 0 0 0 0 0 0 0 0 0 0 0 0 0 0 0 0 0 0

GEFSMA_con_probscp_222.txt.gz
Probability
0 0 0 0 0 0 0 0 0 1 1 1 2 2 3 3 3 3 4 6 7 6 4 3 3 3 3 2 1 0 0 0 0 0 1 1 0 0 0 0 0 1 2
1 1 0 0 0 0 0 0 0 1 2 3 4 4 3 3 3 3 4 5 6 6 4 3 3 3 3 3 1 1 0 0 0 1 2 2 1 1 1 1 0 1 2
4 3 1 0 0 0 1 1 1 1 3 3 4 4 3 3 3 4 5 5 5 5 5 5 4 4 4 3 2 1 0 0 0 1 2 2 2 2 2 2 1 0 1
7 6 4 1 1 0 0 1 1 2 3 3 3 3 3 3 3 4 5 5 5 5 6 7 8 8 6 4 3 1 0 1 1 0 1 2 2 2 2 2 1 0 0
8 9 7 4 2 1 1 1 3 5 6 4 3 3 3 4 4 5 4 5 4 4 5 8 11 11 9 7 5 2 1 1 1 0 0 1 1 0 1 1 1 0 0
10 10 9 6 4 3 3 4 7 11 11 7 4 3 4 5 6 6 6 5 4 5 6 9 13 13 11 10 8 5 3 2 1 0 0 0 0 0 0 0 0 0 0
11 11 10 8 6 5 5 6 11 14 13 10 6 4 4 6 7 7 8 8 6 6 7 11 13 13 10 9 7 6 4 3 2 1 1 0 0 0 0 0 0 0 0
12 12 13 11 9 7 7 9 12 12 11 9 7 6 5 6 6 6 8 10 9 7 7 10 13 13 12 8 5 3 3 3 3 3 3 1 0 0 0 0 0 0 0
17 16 16 15 12 10 9 9 10 10 9 8 7 6 5 6 7 6 6 8 9 7 6 7 10 13 14 12 7 4 2 2 3 4 5 3 1 0 0 0 0 0 0
21 19 18 17 16 14 11 8 8 8 9 9 7 6 5 5 6 6 6 6 7 7 5 5 7 10 14 15 12 8 4 2 1 2 4 4 3 1 0 0 0 0 0
22 21 19 18 17 16 14 10 7 8 10 10 8 7 6 5 5 5 6 6 6 5 5 4 5 7 10 13 13 12 9 4 1 0 2 3 3 2 1 0 0 0 0
24 23 21 20 20 19 17 14 10 9 9 10 10 9 9 7 5 5 5 5 6 6 6 5 6 6 8 9 10 10 10 6 1 0 0 1 1 2 2 1 1 0 0
25 25 24 23 22 20 18 15 13 12 11 12 12 11 10 9 8 7 6 6 7 8 8 8 8 8 8 7 6 5 5 3 1 0 0 0 0 1 1 2 1 0 0
23 24 26 25 23 20 17 16 16 16 16 15 13 12 11 11 11 11 10 9 10 10 9 9 10 10 8 6 3 2 1 1 0 0 0 0 0 0 0 1 1 0 0
21 24 27 27 24 19 18 19 19 18 19 17 14 13 12 13 14 15 14 13 12 10 8 8 9 9 7 4 2 2 2 1 0 0 0 0 0 0 0 0 0 0 0
24 26 28 28 25 20 20 21 21 19 18 18 16 13 13 14 16 18 17 17 15 11 7 6 7 7 5 3 3 3 3 1 1 0 0 0 0 0 0 0 0 0 0
26 27 28 27 24 20 19 21 21 18 16 16 16 14 14 15 17 18 18 18 16 12 9 8 7 6 6 5 5 6 4 2 2 1 0 0 0 0 0 0 0 0 0
27 28 28 26 24 21 20 20 19 16 14 14 16 15 15 14 16 16 16 16 14 12 10 9 8 6 6 6 7 6 5 3 2 1 0 0 0 0 0 0 0 0 0
29 30 30 29 27 24 21 19 16 14 13 13 14 14 13 12 13 14 13 12 11 10 9 8 7 7 6 6 5 5 5 4 2 1 0 0 0 0 0 0 0 0 0
33 33 32 30 27 23 20 17 16 15 15 13 13 13 12 11 12 13 12 10 10 9 8 7 7 6 6 5 4 3 4 4 3 1 0 1 1 1 0 0 0 0 0
34 33 31 27 22 18 16 15 16 16 15 14 13 13 12 11 11 10 9 9 9 9 8 7 6 5 4 4 4 3 3 3 3 2 2 2 2 1 1 0 0 0 0
31 29 26 22 19 15 13 12 14 16 16 15 15 14 12 10 8 7 6 6 7 7 7 6 5 4 4 4 5 4 3 2 2 2 2 2 1 1 1 1 0 0 0
28 27 24 19 15 12 9 7 10 14 17 16 15 14 11 8 6 6 6 5 5 5 5 4 4 4 5 5 5 3 2 1 0 1 1 1 0 0 0 0 0 0 0
27 26 22 16 11 8 5 4 7 12 14 14 13 12 11 8 7 7 7 6 6 5 4 3 3 4 4 4 3 1 1 0 0 0 1 1 0 0 0 0 0 0 0
25 23 18 13 9 6 3 2 4 8 10 11 10 9 9 8 6 5 5 6 6 6 5 3 2 2 1 1 1 0 0 0 0 1 2 1 0 0 0 0 0 0 0
23 20 15 11 8 6 3 2 3 5 8 9 9 7 6 6 4 2 4 6 6 6 5 3 1 0 0 0 0 0 0 0 0 1 2 1 0 0 0 0 0 0 0

GEFSMA_con_probscp_228.txt.gz
Probability
0 0 0 0 0 0 0 0 0 0 0 0 0 0 0 0 0 0 1 2 3 3 3 3 3 3 2 1 0 0 0 0 0 0 0 0 0 0 1 2 2 1 1
0 0 0 0 0 0 0 0 0 0 0 0 0 0 0 0 0 0 0 2 3 4 3 3 3 3 3 2 1 0 0 0 0 0 0 0 0 0 0 1 1 1 1
0 0 0 0 0 0 0 0 0 0 0 0 0 0 0 0 0 0 0 1 3 3 4 4 4 4 4 4 3 1 1 1 1 1 1 1 0 0 0 0 0 0 1
1 1 0 0 0 0 0 0 0 0 0 0 0 0 0 0 0 0 0 1 1 2 3 5 6 6 6 6 5 3 2 2 2 2 2 1 0 0 0 0 0 0 1
2 2 1 0 0 0 0 0 0 0 0 0 0 0 0 0 0 0 0 0 0 0 1 4 6 7 7 5 4 3 2 2 2 2 1 1 0 0 0 0 0 0 0
4 3 2 0 0 0 0 0 0 0 0 0 0 0 0 0 0 0 0 0 0 0 0 1 3 5 5 4 3 2 1 1 1 1 0 0 0 0 0 0 0 0 0
4 5 4 2 1 0 0 0 0 0 0 0 1 1 0 0 0 0 0 0 0 0 0 0 1 1 2 3 3 3 1 0 0 0 0 0 0 0 0 0 0 0 0
4 5 5 3 2 1 0 0 0 0 0 1 2 2 1 1 1 0 0 0 0 0 0 0 0 0 1 1 1 2 2 1 1 1 1 1 1 0 0 0 0 0 0
4 4 4 3 2 1 0 0 0 1 1 2 3 3 3 2 2 1 0 0 0 0 0 0 0 0 0 0 0 1 1 1 1 2 2 2 2 1 1 0 0 0 0
4 4 4 3 1 0 0 1 1 2 3 3 3 3 3 3 3 2 1 0 0 0 0 0 0 0 0 0 0 0 0 0 1 2 3 4 4 3 2 1 1 1 1
2 3 4 3 1 1 1 2 3 3 3 3 3 3 3 3 3 3 2 1 0 0 0 0 0 0 0 0 0 0 0 0 0 1 2 4 4 4 3 3 2 2 2
0 1 2 2 2 2 3 3 3 3 3 3 3 3 3 3 3 3 3 2 1 0 0 0 0 0 0 0 0 0 0 0 0 0 1 2 3 3 3 2 2 3 3
0 0 1 1 2 3 3 3 3 3 3 3 3 3 3 3 3 3 3 2 1 0 0 0 0 0 0 0 0 0 0 0 0 0 0 0 1 1 1 1 1 1 2
0 1 1 1 3 4 4 3 3 3 3 3 3 3 3 3 3 3 3 2 1 0 0 0 0 0 0 0 0 0 0 0 0 0 0 0 0 0 0 0 0 0 1
2 2 2 3 4 5 5 4 3 3 3 3 3 3 3 3 3 2 2 1 0 0 0 0 0 0 0 0 0 0 0 0 0 0 0 0 0 0 0 0 0 0 0
5 4 4 4 5 6 6 4 4 4 4 4 4 4 4 4 4 3 2 1 1 1 1 1 1 0 0 0 0 0 0 0 0 0 0 0 0 0 0 0 0 0 0
6 5 5 5 6 6 7 6 6 6 6 6 6 6 6 6 6 5 4 3 2 2 3 3 2 1 0 0 0 0 0 0 0 0 0 0 0 0 0 0 0 0 0
6 6 6 6 7 7 8 8 7 7 7 6 6 6 6 6 6 6 6 4 3 3 4 4 3 1 1 1 0 0 0 0 0 0 0 0 0 0 0 0 0 0 0
6 6 6 7 6 6 6 7 7 6 6 6 6 6 6 7 7 7 6 5 4 4 4 4 3 3 2 2 1 0 0 0 0 0 0 0 0 0 0 0 0 0 0
7 7 7 6 4 3 4 4 5 5 4 4 5 5 6 7 7 7 6 5 5 5 4 3 3 3 3 3 2 1 0 0 0 0 0 0 0 0 0 0 0 0 0
7 6 5 4 3 2 2 3 4 4 4 4 4 5 6 6 5 5 4 4 4 5 4 3 2 2 3 3 2 1 0 0 0 0 0 0 0 0 0 0 0 0 0
6 4 3 3 3 3 2 1 3 4 4 4 4 4 4 4 3 3 3 3 3 4 3 2 1 1 1 2 2 1 0 0 0 0 0 0 0 0 0 0 0 0 0
4 4 3 4 4 3 1 0 1 2 3 3 2 2 2 2 3 3 3 3 3 3 3 2 1 0 1 2 2 2 1 0 0 0 0 0 0 0 0 0 0 0 0
4 4 3 3 4 3 2 1 0 1 1 1 1 1 1 1 2 2 2 2 3 3 3 2 1 1 1 2 2 2 1 0 0 0 0 0 0 0 0 0 0 0 0
4 4 4 4 4 4 3 2 0 0 0 0 0 1 1 1 1 1 1 1 2 2 2 1 1 0 1 1 1 1 0 0 0 0 0 0 0 0 0 0 0 0 0
3 4 5 5 5 5 3 1 0 0 0 0 0 1 1 0 0 0 0 1 1 1 1 0 0 0 0 0 0 0 0 0 0 0 0 0 0 0 0 0 0 0 0